[[{"header":{"parameterUnit":"m.s-1","parameterCategory":1,"la1":30.2991,"la2":30.254,"lo1":-89.0895,"lo2":-89.0444,"dy":0.0017,"dx":0.0017,"nx":28,"ny":28,"refTime":"2023-04-17T21:00:00:Z","depth":0,"parameterNumber":2,"parameterNumberName":"U-component_of_WINDS"},"data":[0,0,0,0,0,0,0,0,0,0,0,0,0,0,0,0,0,0,0,0,0,0,0,0,0,0,0,0,0,0,0,0,0,0,0,0,0,0,0,0,0,0,0,0,0,0,0,0,0,0,0,0,0,0,0,0,0,0,-5.6068,-5.6068,0,-5.6053,-5.6053,-5.6053,-5.5882,-5.5878,-5.5873,-5.5869,-5.5857,-5.586,-5.5864,0,0,0,0,0,0,0,0,0,0,0,0,0,-5.5951,-5.5954,-5.6068,-5.6068,-5.6068,-5.6053,-5.6053,-5.6053,-5.5883,-5.5877,-5.5872,-5.5867,-5.5855,-5.586,-5.5864,0,0,0,0,0,0,0,0,0,0,0,0,0,-5.5976,-5.5955,-5.6068,-5.5981,-5.5973,-5.6053,-5.6053,-5.6053,-5.5884,-5.5877,-5.5871,-5.5865,-5.5854,-5.5859,-5.5865,-5.6028,0,0,-5.5882,-5.5884,0,0,0,0,0,0,0,0,-5.5974,-5.598,-5.5994,-5.5987,-5.5979,-5.5963,-5.6007,-5.6045,-5.5885,-5.5918,-5.5869,-5.5862,-5.5897,-5.5899,-5.591,-5.6027,-5.6027,-5.5882,-5.5885,-5.5888,-5.5889,0,0,0,0,0,0,0,-5.5973,-5.598,-5.6062,-5.5995,-5.5985,-5.5943,-5.5939,-5.6013,-5.5944,-5.5915,-5.5902,-5.5902,-5.5892,-5.5905,-5.5909,-5.6027,-5.5882,-5.5887,-5.589,-5.5892,-5.6273,-5.628,0,0,0,0,0,0,-5.5983,-5.598,-5.6063,-5.6062,-5.596,-5.595,-5.5946,-5.5974,-5.5943,-5.5932,-5.5908,-5.5895,-5.5899,-5.5903,-5.5908,-5.6093,-5.5888,-5.5893,-5.5896,-5.6267,-5.6275,-5.6282,0,0,0,0,0,0,-5.5981,-5.5992,-5.6063,-5.6017,-5.6023,-5.5959,-5.5992,-5.5977,-5.5991,-5.5938,-5.5925,-5.5934,-5.5894,-5.59,-5.5998,-5.6091,-5.5895,-5.59,-5.6259,-5.6269,-5.6279,-5.6469,0,0,0,0,0,0,-5.5979,-5.5992,-5.6054,-5.602,-5.6026,-5.6155,-5.5998,-5.5982,-5.6,-5.5983,-5.5959,-5.5949,-5.589,-5.5991,-5.6004,-5.6095,-5.5905,-5.625,-5.6263,-5.6275,-5.6454,-5.6484,-5.651,0,0,0,0,0,-5.5975,-5.611,-5.6058,-5.6069,-5.6101,-5.616,-5.6164,-5.6092,-5.6009,-5.6069,-5.6035,-5.595,-5.6079,-5.6003,-5.6016,-5.611,-5.6244,-5.6259,-5.6274,-5.6441,-5.6478,-5.651,0,0,0,0,0,0,-5.6158,-5.6104,-5.6046,-5.6173,-5.6172,-5.6131,-5.6206,-5.6134,-5.6158,-5.614,-5.6051,-5.6047,-5.6158,-5.6144,-5.606,-5.6264,-5.6146,-5.6165,-5.6269,-5.6304,-5.6331,-5.6331,-5.5909,0,0,0,0,0,-5.6213,-5.6264,-5.6215,-5.6332,-5.6334,-5.6271,-5.6294,-5.6238,-5.6234,-5.6233,-5.6206,-5.6206,-5.6246,-5.6275,-5.6309,-5.6452,-5.6443,-5.6523,-5.6551,-5.6575,-5.6591,-5.6662,-5.6697,-5.6333,-5.6332,-5.6332,0,0,-5.6327,-5.6304,-5.6342,-5.6368,-5.6361,-5.6416,-5.6272,-5.6337,-5.6377,-5.6243,-5.6333,-5.6314,-5.6308,-5.6428,-5.648,-5.642,-5.669,-5.6594,-5.6613,-5.6617,-5.6682,-5.6716,-5.6747,-5.6343,-5.6341,-5.6339,0,0,-5.6563,-5.6552,-5.6646,-5.6641,-5.6631,-5.6588,-5.6611,-5.658,-5.6561,-5.665,-5.655,-5.6597,-5.6669,-5.6668,-5.6677,-5.691,-5.6832,-5.6924,-5.7071,-5.7141,-5.717,-5.7195,-5.7275,-5.7306,-5.6941,-5.6942,-5.6942,0,-5.6706,-5.6784,-5.6704,-5.6775,-5.6788,-5.6669,-5.6763,-5.6763,-5.6766,-5.6778,-5.671,-5.6796,-5.6784,-5.6901,-5.6957,-5.697,-5.6992,-5.6925,-5.7172,-5.7196,-5.7218,-5.7294,-5.7325,-5.6953,-5.6952,-5.6951,-5.695,0,-5.696,-5.7016,-5.7093,-5.7096,-5.7119,-5.7202,-5.7133,-5.7166,-5.7109,-5.7072,-5.7163,-5.7144,-5.7171,-5.7195,-5.7141,-5.7305,-5.7267,-5.7188,-5.7067,-5.7266,-5.7335,-5.7364,-5.6969,-5.6965,-5.6962,-5.6959,0,0,-5.731,-5.7266,-5.7295,-5.7294,-5.7273,-5.7315,-5.7392,-5.7417,-5.7445,-5.7452,-5.7512,-5.7575,-5.75,-5.7511,-5.7455,-5.7518,-5.77,-5.743,-5.7428,-5.7478,-5.7876,-5.7934,-5.7969,-5.7649,-5.7655,-5.7659,-5.7875,0,-5.7534,-5.7661,-5.759,-5.7727,-5.7775,-5.7662,-5.7729,-5.7724,-5.7692,-5.7729,-5.7694,-5.7739,-5.7639,-5.7644,-5.7701,-5.7666,-5.7778,-5.765,-5.7704,-5.7707,-5.7706,-5.8005,-5.8067,-5.8272,-5.7902,-5.7907,-5.791,0,-5.7813,-5.7828,-5.7969,-5.7936,-5.7954,-5.8015,-5.803,-5.8068,-5.8059,-5.8031,-5.8042,-5.7971,-5.8043,-5.7926,-5.8024,-5.7938,-5.7956,-5.7943,-5.7949,-5.7949,-5.7819,-5.8011,-5.8336,-5.8366,-5.7953,-5.795,-5.7946,0,-5.805,-5.8106,-5.8196,-5.8199,-5.8164,-5.8209,-5.8197,-5.8181,-5.82,-5.8214,-5.8225,-5.8249,-5.8262,-5.8282,-5.8218,-5.8139,-5.8324,-5.8202,-5.8302,-5.8304,-5.8344,-5.8342,-5.8674,-5.8361,-5.8361,-5.836,-5.836,0,-5.8306,-5.8396,-5.8301,-5.8357,-5.8454,-5.8372,-5.847,-5.8446,-5.8433,-5.8482,-5.8387,-5.8435,-5.835,-5.839,-5.8341,-5.8428,-5.8436,-5.8414,-5.84,-5.8421,-5.8423,-5.843,-5.8413,-5.8368,-5.8367,-5.8365,-5.8364,0,-5.8586,-5.8527,-5.8617,-5.8576,-5.8567,-5.8641,-5.8605,-5.8654,-5.8616,-5.8678,-5.8689,-5.8628,-5.867,-5.8609,-5.8645,-5.8612,-5.8731,-5.8696,-5.8733,-5.8722,-5.8824,-5.8814,-5.917,-5.9211,-5.8875,-5.8878,-5.8881,0,-5.8752,-5.8818,-5.8783,-5.8807,-5.88,-5.8842,-5.8859,-5.8781,-5.8803,-5.8797,-5.8847,-5.888,-5.8902,-5.8973,-5.8933,-5.896,-5.8923,-5.9046,-5.8926,-5.8945,-5.8921,-5.8917,-5.8922,-5.907,-5.9074,-5.9077,-5.908,0,-5.9052,-5.9018,-5.9046,-5.9064,-5.9086,-5.9097,-5.9101,-5.9127,-5.9044,-5.9075,-5.9114,-5.9131,-5.9166,-5.9199,-5.9215,-5.9202,-5.9128,-5.9118,-5.9142,-5.9163,-5.918,-5.9169,-5.8796,-5.911,-5.9107,-5.9104,-5.9103,-5.9102,-5.9278,-5.9329,-5.9311,-5.9345,-5.9339,-5.9344,-5.9387,-5.9353,-5.9384,-5.9404,-5.9357,-5.9408,-5.9396,-5.9409,-5.9405,-5.9444,-5.939,-5.9426,-5.9434,-5.9444,-5.9458,-5.9176,-5.9447,-5.9446,-5.9446,-5.9445,-5.9444,0,-5.9569,-5.9551,-5.9583,-5.9589,-5.9616,-5.9541,-5.9541,-5.9568,-5.9613,-5.9608,-5.9631,-5.9676,-5.9707,-5.9669,-5.9694,-5.9732,-5.9698,-5.9741,-5.9736,-5.9734,-5.9506,-5.9481,-5.9768,-5.9768,-5.9768,-5.9768,-5.9767,-5.9767,-5.9724,-5.9806,-5.9771,-5.9849,-5.9831,-5.9878,-5.9883,-5.9887,-5.9882,-5.9935,-5.996,-5.9935,-5.9916,-5.9938,-5.9964,-5.9952,-5.9964,-6.0018,-5.9995,-5.9782,-5.975,-5.972,-5.9696,-6.0023,-6.0023,-6.0218,-6.022,-6.0221]},{"header":{"parameterUnit":"m.s-1","parameterCategory":1,"la1":30.2991,"la2":30.254,"lo1":-89.0895,"lo2":-89.0444,"dy":0.0017,"dx":0.0017,"nx":28,"ny":28,"refTime":"2023-04-17T21:00:00:Z","depth":0,"parameterNumber":3,"parameterNumberName":"V-component_of_WINDS"},"data":[0,0,0,0,0,0,0,0,0,0,0,0,0,0,0,0,0,0,0,0,0,0,0,0,0,0,0,0,0,0,0,0,0,0,0,0,0,0,0,0,0,0,0,0,0,0,0,0,0,0,0,0,0,0,0,0,0,0,1.2577,1.2577,0,1.2587,1.2587,1.2587,1.255,1.2549,1.2548,1.2547,1.2556,1.2557,1.2558,0,0,0,0,0,0,0,0,0,0,0,0,0,1.2526,1.2527,1.2577,1.2577,1.2577,1.2587,1.2587,1.2587,1.2551,1.2549,1.2548,1.2547,1.2555,1.2557,1.2558,0,0,0,0,0,0,0,0,0,0,0,0,0,1.2543,1.2527,1.2577,1.256,1.2559,1.2587,1.2587,1.2587,1.2551,1.2549,1.2548,1.2546,1.2555,1.2557,1.2559,1.2603,0,0,1.2564,1.2565,0,0,0,0,0,0,0,0,1.2542,1.2545,1.2562,1.2561,1.256,1.2566,1.2572,1.2592,1.2551,1.2554,1.2547,1.2545,1.256,1.2562,1.2567,1.2603,1.2603,1.2564,1.2566,1.2566,1.2567,0,0,0,0,0,0,0,1.2541,1.2544,1.2581,1.2563,1.2561,1.2552,1.2553,1.2576,1.2566,1.2553,1.2551,1.2553,1.2559,1.2565,1.2567,1.2603,1.2564,1.2566,1.2567,1.2568,1.2677,1.2678,0,0,0,0,0,0,1.2542,1.2544,1.258,1.2581,1.2547,1.2554,1.2555,1.2565,1.2566,1.2564,1.2554,1.2551,1.2563,1.2565,1.2567,1.2619,1.2566,1.2568,1.2569,1.2675,1.2677,1.2679,0,0,0,0,0,0,1.2541,1.2546,1.258,1.2562,1.2565,1.2557,1.2569,1.2567,1.2572,1.2566,1.2564,1.2562,1.2562,1.2565,1.2594,1.2618,1.2569,1.2571,1.2673,1.2676,1.2678,1.2722,0,0,0,0,0,0,1.254,1.2546,1.2562,1.2562,1.2566,1.2607,1.257,1.2568,1.2576,1.2572,1.2573,1.2572,1.2561,1.2592,1.2596,1.262,1.2572,1.2671,1.2674,1.2677,1.2719,1.2726,1.2733,0,0,0,0,0,1.2538,1.2574,1.2563,1.2568,1.2587,1.2609,1.2611,1.2598,1.2578,1.2595,1.2591,1.2572,1.2616,1.2595,1.26,1.2625,1.2669,1.2673,1.2677,1.2715,1.2725,1.2732,0,0,0,0,0,0,1.2576,1.2573,1.2562,1.2598,1.2604,1.2602,1.2623,1.2608,1.2619,1.2615,1.2598,1.2599,1.2631,1.2631,1.2608,1.2668,1.2639,1.2644,1.2666,1.2675,1.2682,1.2681,1.2574,0,0,0,0,0,1.2589,1.2607,1.2604,1.2636,1.264,1.2631,1.264,1.263,1.2635,1.2637,1.2635,1.264,1.2655,1.2665,1.2679,1.2719,1.2718,1.2738,1.2745,1.2751,1.2755,1.2777,1.2786,1.2692,1.2692,1.2692,0,0,1.2615,1.2616,1.2628,1.2644,1.2647,1.2666,1.2633,1.2654,1.2668,1.264,1.2668,1.2667,1.2672,1.2707,1.2723,1.2708,1.2782,1.2756,1.2761,1.2762,1.2782,1.2791,1.2799,1.2695,1.2694,1.2694,0,0,1.2672,1.2675,1.2702,1.2707,1.2712,1.2707,1.2714,1.2715,1.2713,1.2741,1.2721,1.2737,1.2763,1.2767,1.2773,1.2834,1.2816,1.2839,1.2875,1.2896,1.2903,1.291,1.2931,1.2939,1.2843,1.2843,1.2843,0,1.2703,1.2731,1.2718,1.2741,1.2749,1.2726,1.2753,1.2758,1.2768,1.2774,1.2757,1.279,1.2792,1.2828,1.2843,1.2849,1.2856,1.2838,1.2903,1.291,1.2915,1.2935,1.2944,1.2846,1.2846,1.2845,1.2845,0,1.2769,1.2789,1.2811,1.2822,1.2832,1.2858,1.2849,1.2861,1.285,1.2846,1.2876,1.2877,1.289,1.2899,1.2888,1.2934,1.2924,1.2906,1.2876,1.2927,1.2946,1.2953,1.285,1.2849,1.2848,1.2847,0,0,1.2848,1.2854,1.2862,1.2867,1.2872,1.2887,1.2912,1.2926,1.2936,1.2944,1.2964,1.2988,1.2971,1.2978,1.2968,1.2987,1.3035,1.2966,1.2966,1.2978,1.3085,1.3098,1.3107,1.3024,1.3026,1.3027,1.3084,0,1.2904,1.2947,1.2937,1.2979,1.2997,1.2976,1.2998,1.3003,1.3001,1.3016,1.3013,1.3029,1.3007,1.301,1.3028,1.3025,1.3056,1.3021,1.3042,1.3043,1.304,1.3117,1.313,1.3184,1.3091,1.3093,1.3094,0,1.2974,1.2986,1.303,1.3034,1.3041,1.3061,1.3073,1.3088,1.3094,1.3091,1.3099,1.3086,1.3111,1.3082,1.3115,1.3092,1.31,1.31,1.3102,1.3102,1.307,1.3118,1.3201,1.3209,1.3105,1.3104,1.3103,0,1.3027,1.3054,1.3084,1.3089,1.3094,1.3108,1.3111,1.3116,1.3125,1.3136,1.3142,1.3156,1.3163,1.3174,1.3165,1.3145,1.3199,1.317,1.3197,1.3197,1.3208,1.3207,1.3293,1.3215,1.3215,1.3215,1.3215,0,1.309,1.3117,1.3108,1.3126,1.3157,1.3145,1.3176,1.3176,1.3181,1.3199,1.3182,1.3199,1.3186,1.3202,1.3195,1.3224,1.3227,1.3225,1.3223,1.3226,1.3226,1.323,1.3226,1.3217,1.3217,1.3216,1.3216,0,1.3153,1.3148,1.3179,1.3182,1.3183,1.3206,1.3208,1.3225,1.3222,1.3245,1.3249,1.3244,1.3263,1.3255,1.3274,1.3269,1.3306,1.3299,1.3304,1.3302,1.3329,1.3326,1.3419,1.343,1.3346,1.3347,1.3348,0,1.3193,1.3214,1.3219,1.323,1.3235,1.3253,1.3263,1.3253,1.3264,1.3273,1.3289,1.3306,1.3319,1.3349,1.3347,1.3361,1.3354,1.3386,1.3356,1.3359,1.3354,1.3352,1.3354,1.3391,1.3392,1.3393,1.3393,0,1.3264,1.3261,1.3276,1.3291,1.3303,1.3314,1.3324,1.3334,1.3325,1.3338,1.3357,1.3367,1.3387,1.3404,1.3417,1.3419,1.3405,1.3403,1.341,1.3413,1.3415,1.3413,1.3319,1.3401,1.34,1.3399,1.3399,1.3399,1.3316,1.3334,1.3341,1.3359,1.3365,1.3375,1.3391,1.3391,1.3407,1.3422,1.3416,1.3438,1.3444,1.3461,1.3465,1.3482,1.3469,1.3479,1.3482,1.3484,1.3487,1.3413,1.3484,1.3484,1.3484,1.3484,1.3483,0,1.3385,1.3389,1.3406,1.342,1.3435,1.3422,1.3432,1.3444,1.3464,1.3472,1.3485,1.3507,1.3524,1.3524,1.3539,1.3552,1.3546,1.3557,1.3555,1.3556,1.3498,1.349,1.3561,1.3561,1.3561,1.3561,1.3561,1.3561,1.3423,1.3453,1.3451,1.3484,1.3487,1.3509,1.3516,1.3525,1.3531,1.3557,1.3571,1.3571,1.3576,1.3591,1.3606,1.3606,1.3612,1.3625,1.3622,1.3567,1.356,1.3552,1.3545,1.3626,1.3626,1.3678,1.3678,1.3679]}]]